Flag for Canada Weather past 2 weeks in Cranbrook, British Columbia, Canada

Now
43 °F

Scattered clouds.


Feels Like: 41 °F
Forecast: 36 / 66 °F
Wind: 3 mph from West

Location: Cranbrook

Current Time: Apr 26, 2015 at 11:07:29 PM

Latest Report: Apr 26, 2015 at 10:00 PM


Visibility: 25 mi

Pressure: 30.23 "Hg

Humidity: 66%

Dew point: 32 °F

Location of CranbrookLocation

Historic Weather in Cranbrook — Graph

°F

Cranbrook temperature yesterday

Maximum temperature yesterday: 52 °F (at 3:00 PM)
Minimum temperature yesterday: 28 °F (at 7:00 AM)
Average temperature yesterday: 40 °F

Past Weeks' High & Low Weather Summary

 TemperatureHumidityPressure
High70 °F (Apr 21, 4:00 PM)87% (Apr 14, 4:00 AM)30.40 "Hg (Apr 14, 4:00 AM)
Low25 °F (Apr 12, 4:00 AM)19% (Apr 18, 6:00 PM)29.69 "Hg (Apr 24, 6:00 AM)
Average45 °F52%30.00 "Hg
* Reported Apr 11 10:00 PM — Apr 26 10:00 PM, Cranbrook, Weather by CustomWeather, © 2015

Note: Actual official high and low records may vary slightly from our data, if they occured in-between our weather recording intervals... More about our weather records

Advertising

Cranbrook weather history for previous 24 hours

 ConditionsComfort  
Time TempWeatherWind HumidityBarometerVisibility
10:00 PM
Sun, Apr 26
43 °FScattered clouds.3 mph66%30.23 "Hg25 mi
9:00 PM46 °FBroken clouds.7 mph53%30.20 "Hg25 mi
8:00 PM50 °FBroken clouds.6 mph50%30.19 "Hg25 mi
7:00 PM54 °FBroken clouds.8 mph44%30.18 "Hg25 mi
6:00 PM52 °FScattered showers. Broken clouds.8 mph44%30.17 "Hg25 mi
5:00 PM54 °FBroken clouds.8 mph44%30.17 "Hg25 mi
4:00 PM48 °FSprinkles. Broken clouds.7 mph58%30.19 "Hg20 mi
3:00 PM54 °FBroken clouds.7 mph44%30.16 "Hg25 mi
2:00 PM48 °FPartly sunny.6 mph58%30.18 "Hg20 mi
1:00 PM48 °FPartly sunny.7 mph50%30.16 "Hg30 mi
12:00 PM48 °FPartly sunny.3 mph54%30.16 "Hg25 mi
11:00 AM46 °FBroken clouds.No wind62%30.16 "Hg25 mi
10:00 AM43 °FBroken clouds.2 mph76%30.17 "Hg25 mi
9:00 AM39 °FBroken clouds.No wind81%30.16 "Hg25 mi
8:00 AM37 °FPassing clouds.6 mph81%30.15 "Hg25 mi
7:00 AM36 °FPassing clouds.2 mph87%30.11 "Hg25 mi
6:00 AM36 °FPartly cloudy.2 mph87%30.09 "Hg25 mi
5:00 AM37 °FOvercast.2 mph81%30.06 "Hg20 mi
4:00 AM37 °FOvercast.3 mph81%30.05 "Hg20 mi
3:00 AM37 °FSprinkles. Mostly cloudy.5 mph81%30.04 "Hg20 mi
2:00 AM37 °FSprinkles. Mostly cloudy.5 mph87%30.04 "Hg20 mi
1:00 AM39 °FSprinkles. Mostly cloudy.No wind81%30.02 "Hg20 mi
12:00 AM39 °FScattered showers. Partly cloudy.2 mph81%30.01 "Hg20 mi
11:00 PM
Sat, Apr 25
39 °FScattered showers. Partly cloudy.8 mph81%29.99 "Hg20 mi
Weather by CustomWeather, © 2015

See weather overviewHow to use our weather pages